[[{"header":{"parameterUnit":"m.s-1","parameterCategory":1,"la1":30.2991,"la2":30.254,"lo1":-89.0895,"lo2":-89.0444,"dy":0.0017,"dx":0.0017,"nx":28,"ny":28,"refTime":"2024-12-01T03:00:00:Z","depth":0,"parameterNumber":2,"parameterNumberName":"U-component_of_WINDS"},"data":[0,0,0,0,0,0,0,0,0,0,0,0,0,0,0,0,0,0,0,0,0,0,0,0,0,0,0,0,0,0,0,0,0,0,0,0,0,0,0,0,0,0,0,0,0,0,0,0,0,0,0,0,0,0,0,0,0,0,-1.254,-1.254,0,-1.2564,-1.2564,-1.2564,-1.2526,-1.2525,-1.2524,-1.2523,-1.2546,-1.2548,-1.255,0,0,0,0,0,0,0,0,0,0,0,0,0,-1.2462,-1.2463,-1.254,-1.254,-1.2541,-1.2564,-1.2564,-1.2564,-1.2527,-1.2525,-1.2523,-1.2522,-1.2546,-1.2548,-1.255,0,0,0,0,0,0,0,0,0,0,0,0,0,-1.2491,-1.2464,-1.254,-1.2525,-1.2524,-1.2563,-1.2564,-1.2564,-1.2527,-1.2525,-1.2523,-1.2521,-1.2545,-1.2548,-1.255,-1.2606,0,0,-1.2559,-1.256,0,0,0,0,0,0,0,0,-1.249,-1.2494,-1.2527,-1.2526,-1.2525,-1.254,-1.2545,-1.2578,-1.2527,-1.2526,-1.2523,-1.252,-1.2546,-1.2548,-1.2557,-1.2607,-1.2608,-1.2559,-1.2561,-1.2562,-1.2563,0,0,0,0,0,0,0,-1.2488,-1.2493,-1.2549,-1.2527,-1.2526,-1.2516,-1.2518,-1.2551,-1.2546,-1.2526,-1.2523,-1.2526,-1.2545,-1.2554,-1.2557,-1.2609,-1.2559,-1.2561,-1.2563,-1.2564,-1.2705,-1.2707,0,0,0,0,0,0,-1.2488,-1.2492,-1.2549,-1.255,-1.2502,-1.2519,-1.2522,-1.2537,-1.2546,-1.2545,-1.2528,-1.2524,-1.2551,-1.2554,-1.2558,-1.2624,-1.2562,-1.2565,-1.2566,-1.2703,-1.2706,-1.2708,0,0,0,0,0,0,-1.2486,-1.2493,-1.2548,-1.252,-1.2526,-1.2523,-1.254,-1.2539,-1.2548,-1.2548,-1.2546,-1.2539,-1.2549,-1.2554,-1.2594,-1.2624,-1.2566,-1.2568,-1.2701,-1.2704,-1.2707,-1.2756,0,0,0,0,0,0,-1.2484,-1.2493,-1.2515,-1.2521,-1.2528,-1.2584,-1.2542,-1.254,-1.2553,-1.2549,-1.2557,-1.2557,-1.2548,-1.259,-1.2597,-1.2627,-1.257,-1.2698,-1.2702,-1.2706,-1.2751,-1.276,-1.2767,0,0,0,0,0,-1.2481,-1.2528,-1.2516,-1.2523,-1.2555,-1.2586,-1.259,-1.2579,-1.2556,-1.2577,-1.2576,-1.2557,-1.2619,-1.2595,-1.2602,-1.2633,-1.2696,-1.2701,-1.2705,-1.2748,-1.2758,-1.2767,0,0,0,0,0,0,-1.2525,-1.2528,-1.2515,-1.2565,-1.2575,-1.258,-1.2607,-1.2591,-1.2608,-1.2604,-1.2589,-1.2591,-1.2634,-1.2637,-1.261,-1.2687,-1.2654,-1.266,-1.2684,-1.2694,-1.2701,-1.27,-1.2573,0,0,0,0,0,-1.254,-1.2565,-1.2567,-1.261,-1.2616,-1.2611,-1.2624,-1.2614,-1.2624,-1.2629,-1.2631,-1.2642,-1.2664,-1.2679,-1.2699,-1.2751,-1.2752,-1.2776,-1.2784,-1.2791,-1.2796,-1.2824,-1.2834,-1.2723,-1.2723,-1.2723,0,0,-1.2572,-1.2577,-1.2594,-1.2619,-1.2626,-1.2652,-1.2615,-1.2644,-1.2663,-1.2633,-1.2671,-1.2673,-1.2684,-1.2731,-1.2751,-1.2735,-1.2827,-1.2797,-1.2802,-1.2804,-1.283,-1.284,-1.2849,-1.2726,-1.2726,-1.2725,0,0,-1.2644,-1.265,-1.2687,-1.2695,-1.2706,-1.2701,-1.271,-1.2717,-1.2717,-1.2755,-1.2733,-1.2755,-1.2793,-1.2802,-1.2811,-1.2884,-1.2867,-1.2891,-1.2933,-1.296,-1.2969,-1.2977,-1.3003,-1.3012,-1.2897,-1.2897,-1.2897,0,-1.2682,-1.2721,-1.2708,-1.2739,-1.275,-1.2724,-1.276,-1.2768,-1.2786,-1.2794,-1.2775,-1.2822,-1.2827,-1.2875,-1.2893,-1.2901,-1.2911,-1.2891,-1.2969,-1.2976,-1.2983,-1.3008,-1.3018,-1.29,-1.29,-1.2899,-1.2899,0,-1.2768,-1.2795,-1.2823,-1.284,-1.2854,-1.2888,-1.2879,-1.2895,-1.2884,-1.2882,-1.292,-1.2925,-1.2946,-1.2956,-1.2946,-1.3003,-1.2992,-1.2971,-1.2938,-1.2997,-1.302,-1.3029,-1.2904,-1.2903,-1.2902,-1.2901,0,0,-1.2869,-1.2877,-1.2888,-1.2895,-1.2904,-1.2925,-1.2956,-1.2976,-1.299,-1.3003,-1.3029,-1.3061,-1.3042,-1.3052,-1.3042,-1.3066,-1.3123,-1.3042,-1.3042,-1.3057,-1.3185,-1.3201,-1.3212,-1.3111,-1.3113,-1.3114,-1.3184,0,-1.294,-1.2996,-1.2984,-1.3038,-1.3062,-1.3037,-1.3065,-1.3073,-1.3071,-1.3091,-1.3089,-1.3112,-1.3085,-1.3091,-1.3113,-1.3112,-1.3149,-1.3106,-1.3135,-1.3136,-1.3134,-1.3224,-1.3241,-1.3307,-1.3193,-1.3195,-1.3196,0,-1.3031,-1.3047,-1.3103,-1.3108,-1.3118,-1.3143,-1.316,-1.3179,-1.3188,-1.3185,-1.3196,-1.3181,-1.3212,-1.3178,-1.322,-1.3191,-1.3202,-1.3203,-1.3205,-1.3208,-1.317,-1.323,-1.3328,-1.3338,-1.321,-1.3209,-1.3208,0,-1.31,-1.3134,-1.3172,-1.3179,-1.3186,-1.3204,-1.3207,-1.3214,-1.3226,-1.3241,-1.3248,-1.3266,-1.3276,-1.329,-1.328,-1.3256,-1.3324,-1.3289,-1.3322,-1.3323,-1.3338,-1.3338,-1.3441,-1.3345,-1.3345,-1.3345,-1.3344,0,-1.3181,-1.3217,-1.3203,-1.3227,-1.3265,-1.3251,-1.329,-1.329,-1.3296,-1.3319,-1.3298,-1.3319,-1.3305,-1.3325,-1.3317,-1.3353,-1.3358,-1.3356,-1.3354,-1.3358,-1.3359,-1.3366,-1.3361,-1.3347,-1.3347,-1.3346,-1.3346,0,-1.3264,-1.3257,-1.3296,-1.3299,-1.33,-1.3329,-1.333,-1.3352,-1.3348,-1.3377,-1.3383,-1.3376,-1.3399,-1.339,-1.3415,-1.3409,-1.3455,-1.3447,-1.3453,-1.3451,-1.3484,-1.3481,-1.3596,-1.361,-1.3505,-1.3506,-1.3507,0,-1.3317,-1.3344,-1.3349,-1.3362,-1.3367,-1.339,-1.3402,-1.3388,-1.3402,-1.3413,-1.3433,-1.3454,-1.347,-1.3507,-1.3505,-1.3523,-1.3515,-1.3553,-1.3517,-1.3521,-1.3515,-1.3514,-1.3517,-1.3561,-1.3562,-1.3563,-1.3564,0,-1.3412,-1.3406,-1.3425,-1.3442,-1.3457,-1.347,-1.3481,-1.3493,-1.3479,-1.3496,-1.3518,-1.3531,-1.3555,-1.3576,-1.3592,-1.3595,-1.3577,-1.3575,-1.3584,-1.3589,-1.3592,-1.3591,-1.3473,-1.3573,-1.3572,-1.3571,-1.3571,-1.357,-1.3482,-1.3504,-1.351,-1.3531,-1.3538,-1.3548,-1.3568,-1.3566,-1.3585,-1.3604,-1.3594,-1.3621,-1.3627,-1.3647,-1.3652,-1.3672,-1.3657,-1.367,-1.3673,-1.3677,-1.3681,-1.3588,-1.3675,-1.3675,-1.3675,-1.3674,-1.3674,0,-1.3575,-1.3578,-1.3597,-1.3613,-1.3629,-1.361,-1.3621,-1.3636,-1.3659,-1.3667,-1.3683,-1.3709,-1.3728,-1.3727,-1.3745,-1.3761,-1.3754,-1.3766,-1.3765,-1.3766,-1.3694,-1.3684,-1.3772,-1.3772,-1.3772,-1.3772,-1.3772,-1.3772,-1.3626,-1.3662,-1.3657,-1.3697,-1.3699,-1.3724,-1.3732,-1.3741,-1.3747,-1.3777,-1.3793,-1.3791,-1.3795,-1.3813,-1.383,-1.3829,-1.3837,-1.3853,-1.3849,-1.3781,-1.3772,-1.3762,-1.3754,-1.3854,-1.3855,-1.392,-1.392,-1.3921]},{"header":{"parameterUnit":"m.s-1","parameterCategory":1,"la1":30.2991,"la2":30.254,"lo1":-89.0895,"lo2":-89.0444,"dy":0.0017,"dx":0.0017,"nx":28,"ny":28,"refTime":"2024-12-01T03:00:00:Z","depth":0,"parameterNumber":3,"parameterNumberName":"V-component_of_WINDS"},"data":[0,0,0,0,0,0,0,0,0,0,0,0,0,0,0,0,0,0,0,0,0,0,0,0,0,0,0,0,0,0,0,0,0,0,0,0,0,0,0,0,0,0,0,0,0,0,0,0,0,0,0,0,0,0,0,0,0,0,-0.7373,-0.7374,0,-0.7447,-0.7448,-0.7448,-0.7457,-0.7456,-0.7455,-0.7455,-0.7529,-0.7531,-0.7534,0,0,0,0,0,0,0,0,0,0,0,0,0,-0.7238,-0.724,-0.7373,-0.7374,-0.7375,-0.7447,-0.7448,-0.7449,-0.7457,-0.7456,-0.7455,-0.7454,-0.7528,-0.7531,-0.7534,0,0,0,0,0,0,0,0,0,0,0,0,0,-0.7302,-0.7241,-0.7373,-0.7388,-0.739,-0.7446,-0.7448,-0.7449,-0.7457,-0.7456,-0.7455,-0.7454,-0.7527,-0.7531,-0.7535,-0.7581,0,0,-0.7547,-0.7549,0,0,0,0,0,0,0,0,-0.7299,-0.7307,-0.7385,-0.7387,-0.7389,-0.7442,-0.7427,-0.7493,-0.7458,-0.7432,-0.7455,-0.7454,-0.7501,-0.7507,-0.7523,-0.7584,-0.7588,-0.7547,-0.755,-0.7551,-0.7552,0,0,0,0,0,0,0,-0.7294,-0.7304,-0.7402,-0.7386,-0.7389,-0.739,-0.7398,-0.744,-0.7471,-0.7434,-0.7435,-0.7443,-0.7502,-0.7519,-0.7525,-0.7589,-0.7547,-0.7551,-0.7553,-0.7555,-0.7691,-0.7692,0,0,0,0,0,0,-0.7287,-0.73,-0.74,-0.7404,-0.734,-0.7393,-0.7402,-0.7426,-0.7471,-0.7477,-0.7444,-0.7443,-0.7513,-0.752,-0.7527,-0.7584,-0.7551,-0.7555,-0.7557,-0.769,-0.7691,-0.7692,0,0,0,0,0,0,-0.7284,-0.7296,-0.7397,-0.7353,-0.7366,-0.7397,-0.7423,-0.7428,-0.7445,-0.7479,-0.7484,-0.7456,-0.7512,-0.7522,-0.7567,-0.7587,-0.7557,-0.756,-0.7688,-0.769,-0.7692,-0.7698,0,0,0,0,0,0,-0.728,-0.7295,-0.7313,-0.7353,-0.7368,-0.7437,-0.7424,-0.743,-0.7452,-0.7452,-0.7491,-0.7497,-0.7512,-0.7561,-0.7571,-0.7591,-0.7563,-0.7686,-0.7689,-0.7691,-0.7696,-0.7699,-0.7702,0,0,0,0,0,-0.7275,-0.7312,-0.7314,-0.7326,-0.7392,-0.7438,-0.7446,-0.7463,-0.7454,-0.7472,-0.7493,-0.7496,-0.7583,-0.7566,-0.7577,-0.7599,-0.7685,-0.7688,-0.7691,-0.7694,-0.7699,-0.7702,0,0,0,0,0,0,-0.7274,-0.7318,-0.7321,-0.7371,-0.7401,-0.7439,-0.7463,-0.7467,-0.75,-0.7498,-0.7517,-0.7526,-0.7571,-0.7589,-0.757,-0.7645,-0.7633,-0.7638,-0.7632,-0.7636,-0.7639,-0.7634,-0.7567,0,0,0,0,0,-0.7279,-0.7313,-0.735,-0.7391,-0.7405,-0.7432,-0.7452,-0.7463,-0.7494,-0.7506,-0.7531,-0.756,-0.7594,-0.7616,-0.7649,-0.7698,-0.7707,-0.7719,-0.7722,-0.7724,-0.7729,-0.7755,-0.7761,-0.7701,-0.7701,-0.7701,0,0,-0.7291,-0.7319,-0.734,-0.7391,-0.7415,-0.7449,-0.7442,-0.7479,-0.7504,-0.7512,-0.7556,-0.7575,-0.7609,-0.7657,-0.7679,-0.7673,-0.7747,-0.7728,-0.773,-0.7733,-0.7758,-0.7764,-0.7769,-0.7703,-0.7703,-0.7703,0,0,-0.733,-0.7355,-0.7392,-0.7416,-0.7452,-0.7469,-0.7478,-0.7516,-0.7528,-0.7574,-0.758,-0.761,-0.7668,-0.7692,-0.7711,-0.7758,-0.7761,-0.7768,-0.7786,-0.7811,-0.7816,-0.782,-0.7836,-0.7842,-0.7772,-0.7772,-0.7772,0,-0.734,-0.7393,-0.741,-0.7447,-0.7468,-0.7477,-0.7513,-0.7536,-0.7581,-0.7596,-0.7589,-0.7662,-0.7685,-0.7738,-0.7749,-0.7765,-0.7775,-0.7764,-0.7814,-0.7818,-0.7822,-0.7838,-0.7844,-0.7773,-0.7773,-0.7773,-0.7773,0,-0.7403,-0.7439,-0.7464,-0.7507,-0.7532,-0.7569,-0.7591,-0.7613,-0.7621,-0.7639,-0.7684,-0.7712,-0.7751,-0.7764,-0.7772,-0.7818,-0.7813,-0.781,-0.7798,-0.7828,-0.7843,-0.7849,-0.7774,-0.7774,-0.7773,-0.7773,0,0,-0.7444,-0.7496,-0.7505,-0.7524,-0.7564,-0.7592,-0.7628,-0.7666,-0.7685,-0.7715,-0.7746,-0.7794,-0.7791,-0.7813,-0.7824,-0.7846,-0.7881,-0.784,-0.7841,-0.7847,-0.7931,-0.7933,-0.794,-0.7883,-0.7884,-0.7885,-0.7928,0,-0.7487,-0.7553,-0.7569,-0.7624,-0.7657,-0.7665,-0.7696,-0.7723,-0.774,-0.777,-0.7788,-0.7822,-0.7816,-0.7829,-0.7851,-0.7872,-0.7898,-0.7869,-0.791,-0.7912,-0.7902,-0.7948,-0.7951,-0.7991,-0.7934,-0.7935,-0.7936,0,-0.7547,-0.7579,-0.7638,-0.7672,-0.7687,-0.7715,-0.775,-0.7779,-0.7809,-0.782,-0.7844,-0.7852,-0.7889,-0.7875,-0.7926,-0.7905,-0.7923,-0.7935,-0.7937,-0.7942,-0.7926,-0.7954,-0.8004,-0.801,-0.7945,-0.7945,-0.7944,0,-0.7571,-0.7628,-0.767,-0.7687,-0.7728,-0.7748,-0.7766,-0.7796,-0.7817,-0.7848,-0.7861,-0.7896,-0.7915,-0.7941,-0.7958,-0.7946,-0.8007,-0.7994,-0.8016,-0.8015,-0.8029,-0.8028,-0.8082,-0.804,-0.804,-0.804,-0.804,0,-0.7618,-0.7653,-0.7681,-0.7707,-0.7747,-0.7764,-0.7803,-0.7821,-0.7847,-0.7876,-0.7884,-0.7911,-0.7932,-0.7961,-0.7975,-0.8014,-0.8023,-0.8032,-0.8035,-0.8031,-0.803,-0.8043,-0.8041,-0.8041,-0.8041,-0.8041,-0.804,0,-0.7651,-0.7671,-0.7718,-0.7753,-0.7763,-0.779,-0.782,-0.7845,-0.7862,-0.7898,-0.7908,-0.7934,-0.7969,-0.7988,-0.8032,-0.8041,-0.8085,-0.8086,-0.8074,-0.8076,-0.8096,-0.8094,-0.8161,-0.8171,-0.8122,-0.8123,-0.8123,0,-0.768,-0.7707,-0.7745,-0.7765,-0.7784,-0.7816,-0.7838,-0.7856,-0.7878,-0.7914,-0.7934,-0.797,-0.7999,-0.8055,-0.8077,-0.811,-0.8113,-0.8134,-0.8118,-0.8113,-0.8113,-0.8111,-0.8113,-0.8137,-0.8137,-0.8138,-0.8138,0,-0.7728,-0.7737,-0.7768,-0.7802,-0.7828,-0.7856,-0.7883,-0.7899,-0.7921,-0.7946,-0.7982,-0.8004,-0.8049,-0.8084,-0.8119,-0.8136,-0.8141,-0.8143,-0.815,-0.8146,-0.8138,-0.8142,-0.8082,-0.8141,-0.8141,-0.8141,-0.8141,-0.814,-0.776,-0.7784,-0.7815,-0.7849,-0.7871,-0.7897,-0.7922,-0.7941,-0.7971,-0.8009,-0.8017,-0.8055,-0.8084,-0.8131,-0.815,-0.8179,-0.8175,-0.8185,-0.8188,-0.819,-0.819,-0.8133,-0.8186,-0.8186,-0.8185,-0.8185,-0.8185,0,-0.7809,-0.7828,-0.786,-0.7898,-0.7924,-0.7926,-0.7956,-0.7978,-0.8011,-0.8038,-0.8066,-0.8107,-0.814,-0.8165,-0.8199,-0.8218,-0.822,-0.8226,-0.8225,-0.8229,-0.8192,-0.8183,-0.8223,-0.8223,-0.8223,-0.8223,-0.8223,-0.8223,-0.7837,-0.7878,-0.789,-0.7942,-0.7961,-0.7998,-0.8015,-0.8038,-0.8059,-0.8104,-0.8132,-0.8148,-0.8173,-0.8209,-0.824,-0.8246,-0.8258,-0.8263,-0.827,-0.8235,-0.8231,-0.8227,-0.8219,-0.8266,-0.8266,-0.8304,-0.8304,-0.8304]}]]